GEFSCGP_prec_meanprecacc_282.txt.gz
Total_Precipitation_Accumulation
0.00 0.00 0.01 0.01 0.01 0.02 0.04 0.09 0.17 0.19 0.17 0.23 0.33 0.54 0.74 0.83 0.98 1.28 1.48 1.48 1.46 1.75 2.24 2.60 2.87 3.07 3.42 3.63 3.81 3.81 4.03 4.44 4.76 4.60 4.26 4.06 3.78 3.54 3.30 3.04 2.93 2.96 2.94 3.12
0.00 0.01 0.01 0.01 0.01 0.02 0.03 0.08 0.17 0.20 0.19 0.30 0.44 0.67 0.84 1.04 1.27 1.36 1.28 1.28 1.42 1.80 2.30 2.67 2.94 3.11 3.38 3.66 4.09 4.23 4.42 4.78 4.91 4.75 4.60 4.42 4.27 3.87 3.72 3.55 3.35 2.98 2.79 2.88
0.01 0.01 0.01 0.01 0.02 0.02 0.05 0.09 0.15 0.17 0.24 0.40 0.52 0.94 1.12 1.28 1.40 1.39 1.32 1.51 1.52 1.60 2.03 2.31 2.43 2.62 2.81 2.97 3.23 3.52 4.01 4.53 4.71 4.77 4.67 4.60 4.62 4.14 3.84 3.68 3.47 3.06 2.77 2.68
0.01 0.01 0.01 0.02 0.02 0.02 0.07 0.08 0.08 0.13 0.24 0.51 0.60 1.20 1.41 1.61 1.72 1.58 1.51 1.43 1.39 1.63 1.98 1.99 1.83 1.98 2.24 2.25 2.57 2.99 3.45 3.81 4.04 4.12 4.11 4.13 4.09 3.98 3.87 3.72 3.31 3.02 2.76 2.67
0.02 0.02 0.02 0.04 0.03 0.03 0.06 0.06 0.09 0.14 0.26 0.48 0.52 0.89 1.42 1.80 1.98 1.60 1.50 1.36 1.41 1.64 1.69 1.64 1.65 1.75 1.93 2.09 2.42 2.73 3.06 3.36 3.52 3.61 3.67 3.77 3.66 3.67 3.55 3.36 3.12 2.89 2.70 2.54
0.02 0.04 0.04 0.04 0.03 0.05 0.05 0.09 0.17 0.26 0.46 0.82 0.66 0.79 1.34 1.74 1.60 1.39 1.32 1.11 1.21 1.40 1.49 1.54 1.63 1.75 1.88 2.18 2.54 2.83 3.07 3.29 3.36 3.14 3.04 3.04 3.08 3.15 3.09 2.92 2.73 2.49 2.37 2.22
0.13 0.10 0.08 0.06 0.07 0.07 0.09 0.19 0.63 1.06 1.39 1.25 0.76 0.88 1.48 1.39 1.04 0.97 1.06 1.04 1.03 1.07 1.21 1.33 1.52 1.72 1.90 2.02 2.12 2.56 2.99 3.16 3.07 2.81 2.62 2.54 2.66 2.77 2.68 2.54 2.48 2.35 2.15 2.00
0.28 0.26 0.13 0.10 0.12 0.14 0.14 0.25 0.73 1.03 1.12 1.09 0.84 1.25 1.77 1.37 0.93 0.78 0.89 0.88 0.78 0.73 0.70 0.80 0.98 1.09 1.25 1.30 1.33 1.50 1.78 2.02 2.10 2.00 2.02 2.06 2.10 2.17 2.16 2.32 2.18 2.15 2.03 1.89
0.17 0.16 0.11 0.13 0.18 0.18 0.24 0.29 0.31 0.53 0.74 1.10 1.10 1.31 1.42 1.18 0.92 0.88 0.96 0.87 0.69 0.65 0.61 0.67 0.78 0.83 0.94 0.97 1.01 1.16 1.41 1.64 1.69 1.70 1.75 1.79 1.80 1.83 1.86 1.92 1.87 1.82 1.86 1.78
0.11 0.11 0.11 0.11 0.15 0.18 0.21 0.29 0.44 0.71 0.95 1.11 1.18 1.53 1.69 1.52 1.26 1.10 1.05 0.92 0.71 0.58 0.56 0.63 0.74 0.78 0.89 1.01 1.16 1.28 1.39 1.50 1.50 1.50 1.51 1.46 1.55 1.56 1.61 1.60 1.54 1.54 1.62 1.62
0.08 0.10 0.13 0.19 0.22 0.22 0.23 0.31 0.48 0.66 0.72 0.95 1.32 1.47 1.24 1.21 1.19 1.26 1.20 1.00 0.76 0.58 0.53 0.59 0.71 0.77 0.85 0.98 1.12 1.27 1.35 1.45 1.42 1.38 1.45 1.51 1.51 1.54 1.51 1.48 1.40 1.47 1.54 1.57
0.10 0.12 0.17 0.26 0.22 0.17 0.22 0.33 0.49 0.74 0.79 0.83 1.00 1.16 0.77 0.80 0.92 1.01 0.99 0.79 0.62 0.55 0.53 0.62 0.73 0.79 0.93 1.00 1.07 1.10 1.19 1.32 1.34 1.36 1.48 1.67 1.64 1.63 1.60 1.45 1.39 1.45 1.46 1.49
0.16 0.16 0.29 0.56 0.51 0.27 0.26 0.26 0.36 0.51 0.63 0.72 0.96 1.14 0.74 0.76 0.91 0.91 0.86 0.73 0.69 0.66 0.66 0.73 0.78 0.78 0.89 0.99 1.03 1.05 1.12 1.24 1.41 1.45 1.52 1.65 1.66 1.62 1.52 1.42 1.38 1.39 1.40 1.46
0.14 0.15 0.26 0.64 0.68 0.45 0.32 0.29 0.32 0.45 0.57 0.56 0.59 0.83 0.83 0.81 0.93 0.92 0.89 0.84 0.85 0.76 0.76 0.87 0.94 0.87 0.87 0.90 0.91 0.94 1.07 1.20 1.24 1.25 1.31 1.41 1.37 1.37 1.37 1.37 1.34 1.33 1.39 1.45
0.14 0.18 0.18 0.28 0.39 0.42 0.39 0.31 0.28 0.31 0.34 0.47 0.56 0.74 0.92 0.91 0.94 0.83 0.78 0.80 0.82 0.78 0.75 0.81 0.75 0.70 0.69 0.71 0.74 0.79 0.82 0.94 1.08 1.17 1.23 1.32 1.37 1.37 1.38 1.32 1.25 1.34 1.41 1.39
0.20 0.25 0.24 0.31 0.39 0.44 0.42 0.37 0.31 0.28 0.27 0.35 0.47 0.66 0.72 0.78 0.83 0.86 0.83 0.85 0.79 0.70 0.72 0.66 0.54 0.49 0.51 0.58 0.62 0.68 0.71 0.79 0.91 0.95 1.04 1.27 1.40 1.42 1.38 1.29 1.28 1.36 1.43 1.50
0.32 0.36 0.35 0.40 0.48 0.60 0.61 0.38 0.35 0.36 0.33 0.44 0.71 0.81 0.80 0.93 0.94 0.87 0.80 0.77 0.68 0.60 0.59 0.56 0.48 0.46 0.50 0.56 0.61 0.67 0.75 0.79 0.86 0.91 0.99 1.07 1.20 1.27 1.22 1.16 1.20 1.26 1.36 1.49
0.39 0.55 0.56 0.53 0.71 0.90 0.73 0.42 0.36 0.41 0.39 0.41 0.56 0.66 0.72 0.93 0.99 0.78 0.66 0.63 0.60 0.58 0.54 0.54 0.55 0.55 0.65 0.65 0.69 0.82 0.94 0.96 0.97 1.06 1.12 1.11 1.17 1.28 1.31 1.28 1.31 1.41 1.47 1.51
0.33 0.53 0.61 0.67 0.83 0.85 0.72 0.58 0.51 0.57 0.64 0.47 0.52 0.58 0.65 0.66 0.77 0.83 0.64 0.65 0.67 0.57 0.57 0.57 0.60 0.67 0.80 0.79 0.82 0.96 1.01 1.05 1.08 1.13 1.22 1.27 1.32 1.40 1.44 1.45 1.53 1.63 1.71 1.62
0.42 0.55 0.71 0.69 0.87 1.03 0.85 0.67 0.60 0.69 1.13 0.75 0.58 0.53 0.62 0.66 0.98 1.04 0.77 0.66 0.66 0.65 0.70 0.76 0.74 0.80 0.87 0.94 1.08 1.17 1.20 1.26 1.31 1.29 1.31 1.39 1.51 1.58 1.63 1.80 2.02 2.10 2.11 2.00
0.85 0.88 0.87 0.85 0.92 0.95 0.81 0.66 0.67 1.15 1.41 0.88 0.70 0.60 0.65 0.72 0.86 0.89 0.74 0.67 0.67 0.72 0.84 0.96 1.08 1.14 1.16 1.08 1.18 1.34 1.49 1.55 1.56 1.66 1.67 1.67 1.77 1.89 1.96 2.19 2.37 2.41 2.39 2.47
1.12 1.13 1.08 1.09 1.29 1.33 0.94 0.91 1.12 1.33 1.16 0.98 0.91 0.84 0.73 0.71 0.73 0.78 0.75 0.75 0.77 0.79 0.93 1.04 1.17 1.25 1.30 1.39 1.47 1.51 1.57 1.64 1.73 1.77 1.83 1.90 2.06 2.00 2.07 2.34 2.41 2.51 2.65 2.67
1.13 1.17 1.20 1.27 1.37 1.25 1.10 1.23 1.28 1.16 1.21 1.14 0.99 0.97 0.86 0.80 0.74 0.70 0.73 0.79 0.86 0.86 0.92 1.08 1.13 1.21 1.36 1.48 1.58 1.72 1.77 1.77 1.85 1.93 2.01 2.14 2.31 2.44 2.49 2.65 2.75 2.73 2.71 2.70
1.26 1.10 1.27 1.44 1.52 1.41 1.45 1.41 1.33 1.30 1.27 1.13 0.96 0.97 0.93 0.84 0.74 0.73 0.80 0.83 0.82 0.84 0.89 1.00 1.07 1.22 1.35 1.47 1.64 1.83 1.85 1.78 1.90 2.03 2.07 2.21 2.36 2.43 2.51 2.67 2.72 2.75 2.73 2.73
1.47 1.41 1.66 1.86 1.86 1.86 1.87 1.69 1.45 1.31 1.18 1.09 0.98 0.95 0.91 0.89 0.86 0.78 0.81 0.91 0.81 0.75 0.84 0.94 0.99 1.12 1.25 1.28 1.46 1.66 1.81 1.89 2.04 2.14 2.21 2.33 2.48 2.62 2.70 2.62 2.66 2.72 2.73 2.66
1.56 1.69 1.90 2.09 1.93 1.90 1.95 1.71 1.42 1.37 1.39 1.31 1.28 1.24 1.15 1.07 1.03 0.92 0.83 0.85 0.81 0.78 0.86 0.99 1.03 1.06 1.13 1.18 1.32 1.46 1.69 1.88 2.16 2.21 2.26 2.36 2.45 2.60 2.61 2.58 2.47 2.40 2.32 2.29

GEFSCGP_prec_meanprecacc_288.txt.gz
Total_Precipitation_Accumulation
0.00 0.00 0.01 0.01 0.01 0.02 0.04 0.10 0.21 0.20 0.18 0.24 0.33 0.55 0.75 0.83 0.99 1.29 1.49 1.50 1.46 1.75 2.24 2.61 2.88 3.08 3.42 3.64 3.81 3.81 4.04 4.45 4.77 4.62 4.29 4.10 3.84 3.61 3.38 3.11 2.99 3.01 2.99 3.16
0.00 0.01 0.01 0.01 0.01 0.02 0.04 0.08 0.18 0.20 0.19 0.30 0.44 0.67 0.84 1.05 1.27 1.36 1.28 1.28 1.43 1.81 2.31 2.67 2.95 3.12 3.40 3.67 4.10 4.23 4.43 4.79 4.92 4.76 4.62 4.47 4.32 3.92 3.77 3.60 3.40 3.04 2.85 2.94
0.01 0.01 0.01 0.01 0.02 0.03 0.05 0.10 0.16 0.17 0.25 0.41 0.53 0.95 1.13 1.28 1.40 1.39 1.32 1.52 1.54 1.62 2.04 2.32 2.44 2.63 2.82 2.97 3.23 3.53 4.02 4.54 4.72 4.77 4.68 4.63 4.65 4.17 3.88 3.72 3.51 3.12 2.84 2.74
0.01 0.01 0.01 0.02 0.03 0.03 0.07 0.08 0.09 0.13 0.25 0.53 0.61 1.22 1.42 1.61 1.72 1.59 1.52 1.46 1.45 1.68 2.00 2.01 1.84 1.99 2.26 2.26 2.58 3.00 3.46 3.82 4.04 4.12 4.12 4.15 4.12 4.00 3.90 3.75 3.35 3.08 2.82 2.72
0.02 0.02 0.02 0.04 0.03 0.03 0.06 0.07 0.10 0.15 0.27 0.51 0.55 0.92 1.44 1.81 1.99 1.61 1.51 1.38 1.44 1.67 1.70 1.66 1.67 1.78 1.95 2.11 2.43 2.74 3.07 3.36 3.53 3.62 3.69 3.79 3.69 3.69 3.58 3.39 3.16 2.92 2.74 2.59
0.02 0.04 0.04 0.04 0.04 0.05 0.05 0.10 0.18 0.27 0.48 0.86 0.71 0.83 1.38 1.75 1.61 1.40 1.33 1.12 1.23 1.42 1.50 1.55 1.64 1.76 1.89 2.19 2.55 2.84 3.08 3.30 3.37 3.15 3.05 3.06 3.11 3.18 3.12 2.95 2.76 2.52 2.42 2.30
0.13 0.11 0.08 0.06 0.07 0.07 0.09 0.20 0.65 1.08 1.41 1.31 0.81 0.92 1.51 1.39 1.06 0.98 1.07 1.05 1.04 1.08 1.23 1.34 1.53 1.73 1.91 2.02 2.12 2.56 2.99 3.16 3.07 2.82 2.63 2.55 2.68 2.79 2.71 2.59 2.51 2.39 2.21 2.09
0.28 0.26 0.14 0.10 0.13 0.14 0.14 0.26 0.75 1.05 1.15 1.13 0.91 1.31 1.80 1.39 0.95 0.80 0.91 0.90 0.79 0.74 0.72 0.80 0.98 1.10 1.25 1.30 1.33 1.50 1.78 2.02 2.11 2.01 2.02 2.07 2.12 2.19 2.19 2.37 2.21 2.18 2.07 1.94
0.17 0.16 0.12 0.13 0.18 0.18 0.25 0.29 0.32 0.55 0.76 1.16 1.17 1.37 1.46 1.20 0.94 0.90 0.98 0.89 0.70 0.66 0.62 0.68 0.78 0.84 0.94 0.97 1.01 1.16 1.41 1.65 1.69 1.70 1.75 1.80 1.82 1.85 1.88 1.94 1.89 1.84 1.88 1.81
0.11 0.11 0.12 0.12 0.16 0.19 0.21 0.29 0.45 0.72 0.97 1.13 1.22 1.58 1.74 1.56 1.28 1.12 1.07 0.94 0.72 0.60 0.57 0.64 0.74 0.79 0.89 1.01 1.16 1.28 1.39 1.50 1.50 1.50 1.52 1.47 1.57 1.58 1.62 1.62 1.55 1.57 1.65 1.65
0.08 0.10 0.14 0.20 0.22 0.23 0.24 0.32 0.48 0.67 0.73 0.96 1.34 1.50 1.26 1.23 1.21 1.28 1.22 1.02 0.78 0.60 0.54 0.59 0.71 0.78 0.85 0.98 1.12 1.27 1.36 1.45 1.43 1.38 1.46 1.51 1.52 1.55 1.53 1.49 1.41 1.48 1.55 1.58
0.10 0.12 0.18 0.26 0.23 0.17 0.23 0.33 0.49 0.75 0.80 0.84 1.01 1.17 0.79 0.82 0.94 1.03 1.03 0.83 0.65 0.57 0.55 0.62 0.74 0.79 0.93 1.00 1.07 1.10 1.19 1.33 1.34 1.36 1.48 1.68 1.64 1.64 1.60 1.46 1.40 1.45 1.46 1.50
0.16 0.16 0.29 0.56 0.52 0.28 0.27 0.26 0.36 0.52 0.64 0.73 0.97 1.15 0.75 0.77 0.93 0.94 0.92 0.81 0.72 0.68 0.67 0.74 0.78 0.78 0.89 0.99 1.03 1.05 1.12 1.24 1.41 1.45 1.52 1.65 1.66 1.62 1.52 1.43 1.39 1.40 1.42 1.46
0.14 0.16 0.27 0.65 0.69 0.46 0.33 0.29 0.32 0.45 0.58 0.56 0.59 0.83 0.83 0.82 0.95 0.95 0.96 0.92 0.90 0.78 0.77 0.87 0.94 0.87 0.87 0.90 0.91 0.94 1.07 1.21 1.24 1.25 1.31 1.41 1.37 1.37 1.38 1.39 1.37 1.35 1.41 1.46
0.14 0.18 0.19 0.29 0.40 0.43 0.39 0.32 0.28 0.31 0.35 0.47 0.56 0.75 0.92 0.93 0.96 0.85 0.82 0.84 0.85 0.80 0.76 0.82 0.76 0.71 0.70 0.71 0.74 0.79 0.83 0.95 1.09 1.18 1.23 1.32 1.38 1.38 1.39 1.34 1.28 1.35 1.42 1.39
0.21 0.26 0.24 0.32 0.40 0.45 0.42 0.37 0.31 0.29 0.28 0.35 0.48 0.68 0.75 0.81 0.86 0.88 0.86 0.87 0.81 0.72 0.73 0.67 0.55 0.50 0.53 0.59 0.63 0.69 0.71 0.79 0.92 0.96 1.05 1.28 1.42 1.44 1.39 1.30 1.32 1.38 1.44 1.51
0.32 0.37 0.36 0.40 0.49 0.61 0.62 0.39 0.35 0.36 0.33 0.45 0.71 0.82 0.83 0.96 0.96 0.89 0.83 0.79 0.71 0.63 0.61 0.58 0.50 0.49 0.53 0.58 0.64 0.69 0.77 0.80 0.87 0.92 1.01 1.09 1.23 1.30 1.25 1.19 1.24 1.28 1.37 1.50
0.39 0.55 0.57 0.54 0.71 0.90 0.73 0.42 0.37 0.41 0.39 0.41 0.56 0.67 0.74 0.96 1.01 0.81 0.69 0.67 0.65 0.62 0.56 0.56 0.56 0.57 0.68 0.67 0.71 0.84 0.97 0.98 0.99 1.09 1.15 1.14 1.23 1.34 1.34 1.31 1.34 1.43 1.49 1.53
0.33 0.53 0.61 0.67 0.83 0.86 0.72 0.58 0.51 0.57 0.65 0.47 0.52 0.59 0.66 0.68 0.80 0.86 0.67 0.69 0.69 0.60 0.59 0.59 0.62 0.69 0.82 0.81 0.84 0.99 1.04 1.08 1.11 1.17 1.26 1.31 1.37 1.47 1.51 1.51 1.59 1.67 1.74 1.64
0.42 0.55 0.71 0.70 0.88 1.03 0.85 0.67 0.60 0.69 1.14 0.76 0.58 0.53 0.63 0.68 1.01 1.08 0.80 0.68 0.68 0.66 0.72 0.77 0.76 0.82 0.89 0.96 1.10 1.21 1.24 1.30 1.36 1.32 1.34 1.43 1.56 1.65 1.71 1.87 2.09 2.15 2.15 2.03
0.85 0.88 0.88 0.86 0.94 0.96 0.81 0.66 0.67 1.16 1.42 0.89 0.71 0.61 0.66 0.73 0.87 0.92 0.77 0.69 0.69 0.75 0.87 0.98 1.10 1.16 1.19 1.11 1.21 1.37 1.54 1.62 1.61 1.70 1.71 1.71 1.83 1.94 2.01 2.23 2.41 2.45 2.42 2.50
1.13 1.14 1.10 1.12 1.31 1.34 0.95 0.91 1.12 1.34 1.17 0.98 0.91 0.85 0.74 0.72 0.75 0.85 0.84 0.81 0.81 0.83 0.98 1.07 1.20 1.28 1.33 1.43 1.52 1.55 1.63 1.70 1.78 1.82 1.88 1.95 2.11 2.05 2.13 2.40 2.47 2.57 2.71 2.73
1.14 1.19 1.22 1.29 1.40 1.28 1.12 1.25 1.30 1.18 1.22 1.15 1.00 0.98 0.87 0.81 0.75 0.73 0.77 0.82 0.88 0.88 0.94 1.10 1.15 1.23 1.38 1.50 1.60 1.77 1.82 1.82 1.90 1.98 2.05 2.19 2.35 2.48 2.54 2.71 2.82 2.80 2.78 2.75
1.27 1.11 1.28 1.46 1.54 1.44 1.48 1.44 1.36 1.32 1.28 1.14 0.96 0.97 0.94 0.84 0.75 0.75 0.82 0.86 0.85 0.87 0.91 1.02 1.09 1.23 1.36 1.48 1.66 1.86 1.89 1.82 1.93 2.07 2.12 2.26 2.40 2.48 2.56 2.72 2.77 2.79 2.76 2.76
1.48 1.42 1.67 1.88 1.87 1.88 1.88 1.71 1.46 1.33 1.20 1.10 0.99 0.96 0.92 0.90 0.88 0.82 0.85 0.94 0.85 0.80 0.88 1.01 1.05 1.15 1.27 1.31 1.49 1.70 1.85 1.92 2.07 2.18 2.25 2.37 2.53 2.67 2.77 2.69 2.72 2.77 2.77 2.68
1.58 1.71 1.93 2.13 1.96 1.92 1.98 1.73 1.44 1.39 1.41 1.33 1.30 1.25 1.16 1.08 1.05 0.96 0.87 0.89 0.85 0.82 0.91 1.07 1.12 1.15 1.21 1.24 1.38 1.50 1.73 1.91 2.20 2.25 2.29 2.39 2.49 2.65 2.68 2.66 2.58 2.51 2.40 2.36

GEFSCGP_prec_meanprecacc_294.txt.gz
Total_Precipitation_Accumulation
0.00 0.01 0.01 0.01 0.01 0.02 0.04 0.10 0.21 0.20 0.18 0.25 0.34 0.55 0.75 0.83 0.99 1.29 1.50 1.50 1.46 1.76 2.25 2.64 2.95 3.09 3.44 3.65 3.82 3.82 4.05 4.46 4.79 4.64 4.31 4.13 3.89 3.66 3.43 3.16 3.04 3.06 3.04 3.22
0.00 0.01 0.01 0.01 0.01 0.02 0.04 0.08 0.18 0.20 0.20 0.31 0.45 0.68 0.85 1.05 1.27 1.36 1.29 1.28 1.43 1.81 2.32 2.69 2.97 3.14 3.41 3.69 4.10 4.24 4.43 4.79 4.93 4.78 4.64 4.49 4.35 3.95 3.81 3.65 3.47 3.08 2.89 2.98
0.01 0.01 0.01 0.01 0.02 0.03 0.05 0.10 0.16 0.17 0.25 0.41 0.53 0.96 1.13 1.29 1.41 1.39 1.32 1.53 1.54 1.62 2.05 2.33 2.45 2.65 2.83 2.98 3.24 3.53 4.02 4.54 4.72 4.78 4.69 4.64 4.67 4.19 3.91 3.76 3.57 3.17 2.88 2.78
0.01 0.01 0.01 0.02 0.03 0.03 0.07 0.08 0.09 0.13 0.25 0.53 0.61 1.22 1.42 1.62 1.72 1.59 1.52 1.46 1.45 1.69 2.00 2.01 1.85 2.01 2.27 2.27 2.58 3.00 3.46 3.82 4.05 4.13 4.12 4.16 4.12 4.02 3.93 3.78 3.40 3.14 2.89 2.77
0.02 0.02 0.02 0.04 0.03 0.03 0.06 0.07 0.10 0.15 0.28 0.52 0.55 0.92 1.45 1.81 1.99 1.61 1.51 1.38 1.45 1.67 1.71 1.66 1.68 1.80 1.95 2.11 2.43 2.75 3.07 3.37 3.54 3.63 3.70 3.80 3.70 3.71 3.62 3.44 3.21 2.99 2.82 2.67
0.03 0.04 0.04 0.04 0.04 0.05 0.06 0.10 0.19 0.27 0.48 0.87 0.71 0.83 1.38 1.75 1.61 1.40 1.33 1.12 1.23 1.42 1.51 1.56 1.65 1.78 1.90 2.19 2.55 2.84 3.08 3.30 3.37 3.16 3.06 3.07 3.12 3.19 3.14 2.98 2.81 2.59 2.52 2.42
0.13 0.11 0.08 0.06 0.07 0.08 0.09 0.20 0.66 1.08 1.41 1.31 0.81 0.92 1.51 1.40 1.06 0.99 1.07 1.05 1.04 1.09 1.23 1.35 1.54 1.74 1.91 2.03 2.13 2.57 2.99 3.17 3.07 2.82 2.63 2.56 2.69 2.81 2.73 2.61 2.54 2.44 2.30 2.21
0.28 0.26 0.14 0.10 0.13 0.14 0.14 0.26 0.75 1.05 1.15 1.13 0.91 1.31 1.80 1.39 0.95 0.81 0.91 0.90 0.79 0.75 0.73 0.81 0.99 1.11 1.26 1.30 1.33 1.51 1.79 2.03 2.11 2.01 2.02 2.08 2.12 2.20 2.20 2.39 2.23 2.21 2.13 2.00
0.17 0.16 0.12 0.14 0.18 0.19 0.25 0.30 0.32 0.55 0.76 1.16 1.17 1.37 1.47 1.20 0.95 0.90 0.98 0.89 0.71 0.67 0.63 0.69 0.79 0.85 0.95 0.97 1.02 1.16 1.41 1.65 1.69 1.70 1.76 1.80 1.82 1.86 1.90 1.95 1.91 1.86 1.90 1.86
0.11 0.12 0.13 0.13 0.17 0.20 0.22 0.30 0.45 0.73 0.97 1.13 1.22 1.59 1.75 1.56 1.29 1.12 1.07 0.94 0.72 0.60 0.58 0.65 0.75 0.80 0.90 1.01 1.16 1.28 1.39 1.50 1.50 1.50 1.52 1.47 1.57 1.59 1.64 1.64 1.58 1.58 1.66 1.66
0.09 0.10 0.14 0.20 0.23 0.24 0.25 0.32 0.49 0.67 0.73 0.96 1.34 1.50 1.26 1.23 1.22 1.28 1.23 1.02 0.78 0.60 0.54 0.60 0.72 0.79 0.86 0.99 1.13 1.27 1.36 1.45 1.43 1.39 1.46 1.52 1.53 1.56 1.54 1.51 1.43 1.50 1.56 1.60
0.10 0.12 0.18 0.26 0.23 0.18 0.24 0.34 0.50 0.76 0.80 0.84 1.01 1.17 0.79 0.82 0.94 1.03 1.04 0.83 0.65 0.57 0.55 0.64 0.75 0.80 0.94 1.01 1.07 1.10 1.20 1.33 1.34 1.36 1.49 1.68 1.65 1.65 1.61 1.48 1.42 1.47 1.48 1.51
0.16 0.16 0.29 0.57 0.52 0.29 0.27 0.27 0.37 0.52 0.64 0.73 0.97 1.15 0.75 0.77 0.93 0.94 0.92 0.81 0.73 0.69 0.68 0.75 0.79 0.78 0.89 1.00 1.04 1.05 1.12 1.24 1.41 1.45 1.52 1.65 1.67 1.63 1.53 1.45 1.41 1.42 1.43 1.47
0.14 0.16 0.27 0.65 0.69 0.46 0.33 0.30 0.33 0.46 0.58 0.56 0.60 0.83 0.83 0.82 0.95 0.96 0.96 0.92 0.91 0.80 0.78 0.89 0.96 0.88 0.87 0.90 0.91 0.94 1.07 1.21 1.24 1.25 1.31 1.41 1.37 1.38 1.39 1.40 1.39 1.36 1.42 1.46
0.14 0.18 0.19 0.29 0.40 0.43 0.39 0.32 0.29 0.31 0.35 0.48 0.56 0.75 0.92 0.93 0.97 0.85 0.82 0.84 0.86 0.82 0.78 0.84 0.77 0.71 0.71 0.72 0.74 0.79 0.83 0.95 1.09 1.18 1.24 1.33 1.39 1.39 1.41 1.35 1.29 1.37 1.43 1.40
0.21 0.26 0.24 0.32 0.40 0.45 0.43 0.38 0.31 0.29 0.28 0.35 0.48 0.68 0.75 0.81 0.86 0.89 0.86 0.87 0.82 0.74 0.75 0.69 0.56 0.51 0.54 0.60 0.64 0.69 0.72 0.80 0.93 0.97 1.07 1.30 1.44 1.47 1.42 1.32 1.34 1.40 1.46 1.53
0.32 0.37 0.36 0.40 0.49 0.61 0.63 0.39 0.35 0.36 0.33 0.45 0.71 0.83 0.83 0.96 0.97 0.89 0.83 0.80 0.72 0.65 0.63 0.59 0.51 0.50 0.54 0.60 0.65 0.71 0.78 0.81 0.88 0.95 1.04 1.13 1.26 1.33 1.28 1.21 1.26 1.30 1.39 1.52
0.39 0.55 0.57 0.54 0.71 0.91 0.73 0.43 0.37 0.41 0.40 0.41 0.56 0.67 0.74 0.96 1.02 0.81 0.69 0.68 0.65 0.62 0.56 0.56 0.56 0.58 0.69 0.68 0.72 0.85 0.98 0.99 1.01 1.11 1.18 1.17 1.24 1.36 1.37 1.33 1.35 1.44 1.51 1.54
0.33 0.53 0.61 0.67 0.84 0.86 0.72 0.58 0.51 0.57 0.65 0.48 0.52 0.59 0.66 0.69 0.81 0.86 0.68 0.69 0.69 0.60 0.59 0.59 0.62 0.70 0.83 0.82 0.85 1.00 1.05 1.10 1.14 1.20 1.29 1.34 1.40 1.50 1.55 1.53 1.61 1.69 1.76 1.66
0.42 0.56 0.72 0.70 0.88 1.04 0.85 0.68 0.60 0.70 1.14 0.76 0.58 0.53 0.63 0.68 1.02 1.08 0.80 0.69 0.68 0.67 0.72 0.77 0.76 0.83 0.90 0.97 1.11 1.22 1.26 1.33 1.39 1.36 1.39 1.47 1.61 1.69 1.75 1.92 2.14 2.21 2.21 2.09
0.85 0.88 0.88 0.87 0.94 0.96 0.81 0.66 0.68 1.16 1.42 0.89 0.71 0.61 0.66 0.74 0.88 0.93 0.78 0.69 0.70 0.75 0.87 0.99 1.11 1.17 1.20 1.12 1.22 1.38 1.56 1.64 1.64 1.74 1.78 1.81 1.90 2.01 2.08 2.30 2.48 2.51 2.50 2.58
1.13 1.14 1.10 1.12 1.31 1.34 0.95 0.92 1.13 1.34 1.17 0.98 0.91 0.85 0.74 0.72 0.75 0.85 0.85 0.82 0.81 0.84 0.98 1.08 1.21 1.29 1.34 1.44 1.53 1.59 1.66 1.73 1.82 1.87 1.94 2.04 2.22 2.15 2.21 2.47 2.54 2.65 2.79 2.80
1.14 1.19 1.22 1.30 1.40 1.28 1.13 1.25 1.30 1.19 1.22 1.15 1.00 0.99 0.88 0.82 0.76 0.74 0.78 0.82 0.88 0.88 0.94 1.10 1.16 1.25 1.39 1.51 1.62 1.81 1.89 1.89 1.96 2.04 2.10 2.25 2.44 2.57 2.64 2.79 2.88 2.86 2.84 2.81
1.28 1.12 1.29 1.46 1.55 1.44 1.49 1.45 1.37 1.33 1.29 1.15 0.97 0.98 0.94 0.85 0.77 0.76 0.83 0.86 0.86 0.87 0.92 1.02 1.10 1.24 1.37 1.49 1.67 1.89 1.93 1.86 1.98 2.12 2.17 2.31 2.46 2.55 2.63 2.81 2.87 2.85 2.81 2.81
1.48 1.43 1.68 1.89 1.88 1.89 1.89 1.72 1.48 1.34 1.21 1.11 1.00 0.97 0.93 0.90 0.89 0.83 0.86 0.95 0.87 0.82 0.90 1.02 1.07 1.17 1.29 1.31 1.50 1.72 1.88 1.95 2.11 2.24 2.31 2.44 2.59 2.71 2.80 2.73 2.79 2.84 2.83 2.74
1.59 1.73 1.95 2.14 1.97 1.94 1.99 1.75 1.46 1.40 1.42 1.35 1.32 1.28 1.18 1.09 1.07 0.97 0.88 0.90 0.87 0.85 0.93 1.09 1.14 1.17 1.23 1.26 1.39 1.53 1.77 1.97 2.26 2.30 2.34 2.44 2.54 2.69 2.71 2.70 2.63 2.58 2.47 2.42

GEFSCGP_prec_meanprecacc_300.txt.gz
Total_Precipitation_Accumulation
0.00 0.01 0.01 0.01 0.01 0.02 0.04 0.10 0.21 0.20 0.18 0.25 0.34 0.55 0.75 0.83 0.99 1.29 1.50 1.50 1.46 1.76 2.25 2.65 2.96 3.11 3.45 3.66 3.83 3.84 4.07 4.48 4.82 4.68 4.36 4.17 3.92 3.70 3.47 3.20 3.09 3.11 3.10 3.30
0.00 0.01 0.01 0.01 0.01 0.02 0.04 0.08 0.18 0.20 0.20 0.31 0.45 0.68 0.85 1.05 1.27 1.36 1.29 1.28 1.43 1.81 2.32 2.70 2.99 3.15 3.42 3.69 4.12 4.25 4.46 4.82 4.95 4.82 4.69 4.53 4.39 3.98 3.84 3.69 3.51 3.14 2.95 3.06
0.01 0.01 0.01 0.01 0.02 0.03 0.05 0.10 0.16 0.17 0.25 0.41 0.53 0.96 1.13 1.29 1.41 1.39 1.32 1.53 1.54 1.63 2.05 2.34 2.46 2.66 2.84 2.99 3.24 3.54 4.04 4.55 4.75 4.82 4.73 4.68 4.69 4.22 3.95 3.80 3.62 3.24 2.96 2.84
0.01 0.01 0.01 0.02 0.03 0.03 0.07 0.08 0.09 0.13 0.25 0.53 0.62 1.23 1.42 1.62 1.72 1.59 1.52 1.46 1.45 1.69 2.00 2.02 1.85 2.01 2.28 2.27 2.58 3.01 3.47 3.83 4.06 4.15 4.16 4.21 4.16 4.07 3.98 3.84 3.46 3.21 2.95 2.81
0.02 0.02 0.02 0.04 0.03 0.03 0.06 0.07 0.10 0.15 0.28 0.52 0.55 0.92 1.45 1.81 1.99 1.61 1.51 1.38 1.45 1.67 1.71 1.67 1.68 1.80 1.96 2.12 2.43 2.75 3.08 3.38 3.54 3.65 3.73 3.84 3.73 3.75 3.65 3.47 3.26 3.05 2.87 2.71
0.03 0.04 0.04 0.04 0.04 0.05 0.06 0.10 0.19 0.27 0.49 0.87 0.71 0.83 1.39 1.75 1.61 1.40 1.33 1.12 1.23 1.42 1.51 1.56 1.65 1.78 1.90 2.20 2.55 2.85 3.09 3.31 3.38 3.17 3.08 3.10 3.16 3.22 3.17 3.02 2.85 2.63 2.56 2.46
0.13 0.11 0.08 0.06 0.07 0.09 0.09 0.20 0.66 1.09 1.42 1.32 0.81 0.92 1.51 1.40 1.06 0.99 1.07 1.05 1.05 1.09 1.23 1.35 1.54 1.74 1.92 2.03 2.13 2.57 3.00 3.17 3.08 2.83 2.64 2.57 2.71 2.83 2.75 2.64 2.56 2.47 2.33 2.24
0.28 0.26 0.14 0.10 0.14 0.15 0.14 0.26 0.75 1.05 1.15 1.13 0.91 1.31 1.80 1.39 0.95 0.81 0.91 0.90 0.79 0.75 0.73 0.81 0.99 1.11 1.26 1.31 1.33 1.51 1.79 2.03 2.11 2.01 2.03 2.09 2.13 2.21 2.21 2.40 2.25 2.23 2.17 2.05
0.17 0.16 0.12 0.14 0.19 0.19 0.25 0.30 0.32 0.55 0.76 1.16 1.17 1.37 1.47 1.20 0.95 0.90 0.98 0.89 0.71 0.67 0.63 0.69 0.79 0.85 0.95 0.98 1.02 1.16 1.41 1.65 1.69 1.71 1.76 1.81 1.82 1.87 1.90 1.96 1.92 1.89 1.95 1.90
0.11 0.12 0.13 0.13 0.17 0.20 0.22 0.30 0.46 0.73 0.97 1.13 1.22 1.59 1.75 1.56 1.29 1.12 1.07 0.94 0.72 0.60 0.58 0.65 0.76 0.80 0.90 1.01 1.16 1.28 1.39 1.50 1.50 1.51 1.52 1.48 1.58 1.60 1.65 1.65 1.59 1.61 1.68 1.70
0.09 0.10 0.14 0.21 0.24 0.24 0.26 0.33 0.49 0.68 0.74 0.96 1.34 1.50 1.26 1.23 1.22 1.28 1.23 1.02 0.78 0.60 0.54 0.60 0.72 0.79 0.86 0.99 1.13 1.27 1.36 1.45 1.43 1.39 1.46 1.52 1.53 1.57 1.55 1.52 1.45 1.51 1.59 1.63
0.10 0.12 0.18 0.27 0.23 0.18 0.24 0.35 0.50 0.76 0.81 0.84 1.01 1.17 0.79 0.82 0.94 1.03 1.04 0.83 0.65 0.58 0.56 0.64 0.75 0.80 0.94 1.01 1.07 1.10 1.20 1.33 1.34 1.36 1.49 1.68 1.65 1.65 1.62 1.49 1.43 1.49 1.50 1.54
0.16 0.16 0.30 0.57 0.53 0.29 0.28 0.27 0.37 0.52 0.64 0.74 0.97 1.15 0.75 0.77 0.93 0.94 0.92 0.81 0.73 0.69 0.68 0.75 0.80 0.79 0.89 1.00 1.04 1.05 1.12 1.25 1.41 1.45 1.52 1.65 1.67 1.63 1.54 1.45 1.42 1.44 1.45 1.49
0.14 0.16 0.27 0.65 0.69 0.46 0.33 0.30 0.33 0.46 0.58 0.56 0.60 0.83 0.83 0.82 0.95 0.96 0.96 0.93 0.91 0.80 0.78 0.89 0.96 0.88 0.88 0.91 0.92 0.94 1.07 1.21 1.25 1.26 1.32 1.41 1.37 1.38 1.40 1.41 1.40 1.38 1.43 1.47
0.14 0.18 0.19 0.29 0.40 0.43 0.39 0.32 0.29 0.32 0.35 0.48 0.56 0.75 0.92 0.93 0.97 0.86 0.82 0.85 0.86 0.82 0.78 0.84 0.78 0.72 0.72 0.73 0.75 0.80 0.83 0.95 1.10 1.19 1.24 1.33 1.39 1.40 1.42 1.37 1.32 1.38 1.44 1.41
0.21 0.26 0.25 0.32 0.40 0.45 0.43 0.38 0.31 0.29 0.28 0.35 0.48 0.68 0.75 0.81 0.86 0.89 0.86 0.88 0.82 0.74 0.75 0.69 0.57 0.51 0.55 0.61 0.65 0.70 0.73 0.81 0.94 0.98 1.08 1.30 1.45 1.47 1.45 1.35 1.35 1.41 1.47 1.54
0.32 0.37 0.36 0.40 0.49 0.61 0.63 0.39 0.35 0.36 0.33 0.45 0.72 0.83 0.83 0.96 0.97 0.89 0.83 0.80 0.72 0.65 0.63 0.59 0.51 0.50 0.55 0.60 0.66 0.72 0.79 0.82 0.89 0.96 1.05 1.14 1.27 1.34 1.29 1.23 1.28 1.32 1.40 1.53
0.39 0.55 0.57 0.54 0.72 0.91 0.73 0.43 0.37 0.41 0.40 0.41 0.56 0.67 0.74 0.96 1.02 0.81 0.69 0.68 0.66 0.62 0.57 0.56 0.57 0.58 0.69 0.69 0.73 0.86 0.99 1.00 1.02 1.12 1.19 1.18 1.25 1.37 1.39 1.36 1.39 1.48 1.54 1.57
0.33 0.53 0.61 0.68 0.84 0.86 0.73 0.58 0.51 0.57 0.65 0.48 0.52 0.59 0.66 0.69 0.81 0.86 0.68 0.69 0.69 0.60 0.59 0.59 0.62 0.70 0.83 0.83 0.86 1.01 1.06 1.11 1.16 1.21 1.31 1.36 1.41 1.52 1.57 1.57 1.64 1.72 1.79 1.69
0.43 0.56 0.72 0.70 0.89 1.04 0.85 0.68 0.60 0.70 1.14 0.76 0.58 0.53 0.63 0.68 1.02 1.08 0.80 0.69 0.68 0.67 0.72 0.77 0.76 0.83 0.90 0.98 1.12 1.22 1.26 1.34 1.41 1.38 1.41 1.51 1.64 1.72 1.78 1.96 2.19 2.26 2.26 2.13
0.86 0.89 0.89 0.87 0.95 0.96 0.81 0.67 0.68 1.17 1.43 0.89 0.71 0.61 0.66 0.74 0.88 0.93 0.78 0.70 0.70 0.76 0.87 0.99 1.11 1.18 1.20 1.13 1.22 1.39 1.57 1.65 1.66 1.77 1.81 1.84 1.93 2.05 2.12 2.34 2.53 2.56 2.54 2.62
1.13 1.15 1.11 1.13 1.32 1.35 0.95 0.92 1.13 1.35 1.18 0.99 0.92 0.85 0.74 0.72 0.76 0.86 0.86 0.82 0.81 0.84 0.98 1.08 1.21 1.29 1.34 1.45 1.54 1.60 1.67 1.75 1.85 1.89 1.97 2.06 2.24 2.18 2.24 2.51 2.57 2.68 2.82 2.83
1.14 1.19 1.22 1.30 1.41 1.28 1.13 1.25 1.30 1.19 1.23 1.16 1.01 1.00 0.88 0.83 0.77 0.75 0.79 0.83 0.89 0.89 0.95 1.11 1.16 1.25 1.39 1.52 1.63 1.83 1.91 1.91 1.99 2.07 2.13 2.28 2.46 2.60 2.67 2.82 2.91 2.89 2.86 2.82
1.28 1.12 1.29 1.47 1.55 1.44 1.49 1.45 1.38 1.33 1.30 1.16 0.98 0.99 0.95 0.86 0.77 0.77 0.84 0.87 0.86 0.88 0.92 1.03 1.11 1.25 1.38 1.50 1.69 1.91 1.96 1.90 2.01 2.16 2.21 2.34 2.49 2.59 2.67 2.85 2.90 2.88 2.84 2.83
1.49 1.43 1.69 1.89 1.88 1.89 1.89 1.72 1.48 1.34 1.22 1.12 1.02 0.99 0.95 0.92 0.90 0.84 0.87 0.96 0.88 0.82 0.90 1.04 1.08 1.18 1.30 1.33 1.51 1.74 1.91 1.99 2.15 2.28 2.36 2.49 2.64 2.75 2.84 2.77 2.83 2.90 2.89 2.78
1.59 1.73 1.96 2.15 1.98 1.94 2.00 1.76 1.47 1.41 1.43 1.36 1.33 1.29 1.19 1.11 1.08 0.99 0.90 0.92 0.88 0.86 0.94 1.11 1.16 1.19 1.25 1.28 1.42 1.57 1.81 2.01 2.29 2.34 2.39 2.49 2.58 2.73 2.74 2.72 2.66 2.62 2.52 2.48